User: anonymous   Login
Location: Knowlton
(51.2333°N, 1.2667°E)
Time: 04:58:12
(UTC+00:00)
Language:

Cosmos 676 Rocket - Orbit

View from above orbital plane
View from above orbital plane
View from above satellite
View from above satellite

Ground track
Ground track

The orbit data is extracted from the following two-line orbital elements,

1  7434U 74071B   21171.36913922  .00000031  00000-0  19391-4 0  9995
2  7434  74.0479  44.8311 0021332 311.8487  48.0844 14.36769559446989
Epoch (UTC): 20 June 2021 08:51:33
Eccentricity: 0.0021332
inclination: 74.0479°
perigee height: 754 km
apogee height: 784 km
right ascension of ascending node: 44.8311°
argument of perigee: 311.8487°
revolutions per day: 14.36769559
mean anomaly at epoch: 48.0844°
orbit number at epoch: 44698

The dashed part of the orbit path shows where the satellite is in the earth's shadow,  

DLR